Flag for Tunisia

Past Weather in Sousse, Tunisia — Yesterday and Last 2 Weeks

Now
79 °F

Passing clouds.


Feels Like: 83 °F
Forecast: 76 / 68 °F
Wind: 5 mph from Northwest

Location: Habib Bourguiba
Current Time: Sep 25, 2020 at 9:17:19 am
Latest Report: Sep 25, 2020 at 8:30 am
Visibility: 4 mi
Pressure29.89 "Hg
Humidity: 100%
Dew Point: 79 °F
Location of SousseLocation

Past Weather in Sousse — Graph

°F

Sousse Temperature Yesterday

Maximum temperature yesterday: 91 °F (at 1:30 pm)
Minimum temperature yesterday: 75 °F (at 6:00 am)
Average temperature yesterday: 82 °F

High & Low Weather Summary for the Past Weeks

 TemperatureHumidityPressure
High91 °F (Sep 24, 1:30 pm)100% (Sep 10, 7:00 am)30.12 "Hg (Sep 10, 7:00 am)
Low70 °F (Sep 12, 9:00 pm)43% (Sep 17, 4:00 pm)29.86 "Hg (Sep 11, 4:30 am)
Average78 °F80%30.00 "Hg
* Reported Sep 10 7:00 am — Sep 25 7:30 am, Sousse. Weather by CustomWeather, © 2020

Note: Actual official high and low records may vary slightly from our data, if they occured in-between our weather recording intervals... More about our weather records

Sousse Weather History for the Previous 24 Hours

Scroll right to see more
 ConditionsComfort  
Time TempWeatherWind HumidityBarometerVisibility
7:30 am
Fri, Sep 25
79 °FClear.9 mph100%29.89 "Hg4 mi
7:00 am77 °FClear.8 mph100%29.89 "Hg4 mi
6:30 am75 °FClear.5 mph100%29.89 "Hg4 mi
6:00 am77 °FClear.2 mph100%29.86 "Hg4 mi
5:30 am77 °FClear.3 mph100%29.86 "Hg4 mi
5:00 am77 °FClear.5 mph100%29.89 "Hg5 mi
4:30 am79 °FClear.3 mph94%29.89 "Hg5 mi
4:00 am79 °FClear.3 mph94%29.89 "Hg5 mi
3:30 am79 °FClear.5 mph94%29.89 "Hg5 mi
3:00 am79 °FClear.6 mph100%29.89 "Hg5 mi
2:00 am79 °FClear.3 mph94%29.92 "Hg5 mi
1:30 am79 °FClear.3 mph94%29.92 "Hg5 mi
1:00 am79 °FClear.3 mph94%29.92 "Hg5 mi
12:30 am79 °FClear.3 mph94%29.92 "Hg5 mi
12:00 am79 °FClear.No wind100%29.95 "Hg5 mi
11:30 pm
Thu, Sep 24
79 °FClear.No wind94%29.95 "Hg5 mi
11:00 pm81 °FClear.3 mph94%29.95 "Hg5 mi
10:30 pm81 °FClear.5 mph94%29.95 "Hg10 mi
10:00 pm81 °FClear.7 mph89%29.95 "Hg10 mi
9:30 pm82 °FClear.7 mph84%29.95 "Hg10 mi
8:30 pm82 °FClear.7 mph79%29.95 "Hg10 mi
8:00 pm82 °FClear.12 mph79%29.95 "Hg10 mi
7:30 pm84 °FClear.9 mph74%29.92 "Hg10 mi
7:00 pm84 °FClear.12 mph74%29.92 "Hg5 mi
6:30 pm86 °FClear.8 mph75%29.92 "Hg5 mi
6:00 pm86 °FClear.12 mph75%29.92 "Hg5 mi
5:30 pm88 °FClear.10 mph70%29.92 "Hg5 mi
5:00 pm88 °FClear.13 mph75%29.92 "Hg5 mi
4:30 pm88 °FClear.13 mph75%29.92 "Hg5 mi
4:00 pm88 °FClear.10 mph70%29.95 "Hg5 mi
3:30 pm88 °FClear.10 mph66%29.95 "Hg5 mi
3:00 pm88 °FClear.9 mph66%29.95 "Hg5 mi
2:30 pm91 °FClear.7 mph56%29.95 "Hg5 mi
2:00 pm90 °FSunny.6 mph46%29.98 "Hg10 mi
1:30 pm91 °FSunny.7 mph46%29.98 "Hg10 mi
1:00 pm90 °FSunny.7 mph55%29.98 "Hg10 mi
12:30 pm88 °FPassing clouds.7 mph59%30.01 "HgN/A
12:00 pm86 °FPassing clouds.9 mph66%30.01 "Hg5 mi
11:30 am84 °FPassing clouds.10 mph70%30.01 "Hg5 mi
11:00 am82 °FPassing clouds.8 mph79%30.01 "Hg5 mi
10:30 am82 °FPassing clouds.10 mph84%30.04 "Hg4 mi
10:00 am81 °FPassing clouds.10 mph89%30.04 "Hg4 mi
9:30 am81 °FClear.9 mph89%30.04 "Hg4 mi
9:00 am79 °FClear.6 mph94%30.01 "Hg4 mi
Weather by CustomWeather, © 2020

See weather overview